Location: Newark
(50.4348°N, 30.5552°E)
Time: 12:17:27
(UTC+00:00)

Tiros 1 despin weight - Pass Details

Date: 29 January 2020
Orbit: 594 x 642 km, 48.2° (Epoch: 20 February)

Event Time Altitude Azimuth Distance (km) Brightness Sun altitude
Rises 12:29:15 0° 279° (W) 2,891 ? 15.1°
Reaches altitude 10° 12:31:39 10° 272° (W) 1,992 ? 14.9°
Maximum altitude 12:35:55 39° 203° (SSW) 938 ? 14.5°
Drops below altitude 10° 12:40:14 10° 135° (SE) 2,012 ? 14.1°
Sets 12:42:40 0° 128° (SE) 2,924 ? 13.9°
